{"data":{"norad_id":67566,"epoch":"2026-09-19T21:23:39.705792Z","epoch_age_seconds":124850,"freshness":"FRESH","line1":"1 67566U 26016F   26262.89143178  .00007583  00000+0  23697-3 0  9996","line2":"2 67566  97.2858 321.5074 0001070  94.9395 265.1970 15.33447529 36620","mean_motion":15.33447529,"eccentricity":0.000107,"inclination_deg":97.2858,"raan_deg":321.5074,"arg_perigee_deg":94.9395,"mean_anomaly_deg":265.197,"bstar":0.00023697,"rev_number":3662,"period_min":93.906049784374,"perigee_km":464.80337699023,"apogee_km":466.26792293732,"semimajor_km":6843.6726499638,"source":"CELESTRAK","updated_at":"2026-09-20T09:00:43.574529Z"}}